SCP
0 0 0 0 0 0 0 0 0 0 0 0 0 0 -0 0 -0 0 0 0 0 0 0 0 0 0 0 0 0 0 0 0 0 0 0 -0 -0 -0 -0 -0 -0 -0 -0 -0 -0 -0 -0 -0 -0
0 0 0 0 0 0 0 0 0 0 0 0 0 0 0 0 0 0 0 -0 -0 0 0 0 0 0 0 0 0 0 0 0 0 0 -0 -0 -0 -0 -0 -0 -0 -0 -0 -0 -0 -0 -0 -0 -0
0 0 0 0 0 0 0 0 0 0 0 0 0 0 0 0 -0 0 -0 -0 -0 0 0 0 0 0 0 -0 0 0 0 0 -0 -0 0 -0 -0 -0 -0 -0 -0 -0 -0 -0 -0 -0 -0 -0 -0
0 0 0 0 0 0 0 0 0 0 0 0 0 0 0 0 0 -0 -0 -0 -0 -0 0 0 0 0 0 -0 -0 0 0 0 -0 -0 -0 -0 -0 -0 -0 -0 -0 -0 -0 -0 -0 -0 -0 -0 -0
0 0 0 0 0 0 0 0 0 0 0 0 0 0 0 0 -0 -0 -0 -0 -0 -0 0 0 0 0 0 -0 -0 -0 -0 -0 -0 -0 -0 -0 -0 -0 -0 -0 -0 -0 -0 -0 -0 -0 -0 -0 -0
0 0 0 0 0 0 0 0 0 0 0 0 0 0 0 0 -0 -0 -0 -0 -0 -0 -0 0 0 0 0 -0 -0 -0 -0 0 -0 -0 -0 -0 -0 -0 -0 -0 -0 -0 -0 -0 -0 -0 -0 0 -0
0 0 0 0 0 0 0 0 0 0 0 0 0 0 0 0 -0 -0 -0 -0 -0 -0 -0 0 0 0 0 -0 -0 -0 -0 0 0 -0 -0 -0 -0 -0 -0 -0 -0 -0 -0 -0 -0 -0 0 0 0
0 0 0 0 0 0 0 0 0 0 0 0 0 0 0 -0 -0 -0 -0 -0 -0 -0 -0 -0 0 0 0 0 -0 -0 -0 -0 -0 -0 -0 -0 -0 -0 -0 0 -0 -0 -0 -0 0 0 0 0 0
0 0 0 0 0 0 0 0 0 0 0 0 0 0 -0 -0 -0 -0 -0 -0 -0 -0 -0 -0 -0 0 0 0 0 -0 -0 -0 -0 0 -0 0 0 0 0 0 -0 -0 0 0 0 0 0 0 0
0 0 0 0 0 0 0 0 0 0 0 0 0 0 0 -0 0 -0 -0 -0 -0 -0 -0 -0 -0 -0 -0 0 0 0 0 0 0 0 -0 0 0 0 0 0 -0 -0 0 0 0 0 0 0 0
0 0 0 0 0 0 0 0 0 0 0 0 0 0 0 0 0 -0 -0 -0 -0 -0 -0 -0 -0 -0 -0 -0 0 0 0 0 0 0 0 0 0 0 0 0 0 0 0 0 0 0 0 0 0
0 0 0 0 0 0 0 0 0 0 0 0 0 -0 0 0 -0 -0 -0 -0 -0 -0 -0 -0 -0 -0 -0 -0 -0 -0 -0 0 0 0 0 0 0 0 0 0 0 0 0 0 0 0 0 0 0
0 0 0 0 0 0 0 0 0 0 0 0 0 0 0 0 0 0 0 0 -0 -0 -0 -0 -0 -0 -0 -0 -0 -0 -0 -0 -0 -0 -0 0 0 0 0 0 0 0 0 0 0 0 0 0 0
0 0 0 0 0 0 0 0 0 0 0 0 0 0 0 -0 -0 -0 -0 -0 -0 -0 -0 -0 -0 -0 0 -0 -0 0 0 0 0 0 0 0 0 0 0 0 0 0 0 0 0 0 0 0 0
0 0 0 0 0 0 0 0 0 0 0 0 0 0 0 0 0 -0 -0 -0 -0 -0 -0 -0 0 0 0 0 0 0 0 0 0 0 0 0 0 0 0 0 0 0 0 0 0 0 0 0 0
0 0 0 0 0 0 0 0 0 0 0 0 0 0 0 0 0 0 -0 -0 -0 -0 -0 -0 0 0 0 0 0 0 0 0 0 0 0 0 0 0 0 0 0 0 0 0 0 0 0 0 0
0 0 0 0 0 0 0 0 0 0 0 0 0 0 0 0 0 0 0 0 -0 -0 -0 0 0 0 0 0 0 0 0 0 0 0 0 0 0 0 0 0 0 0 0 0 0 0 0 0 0
0 0 0 0 0 0 0 0 0 0 0 0 0 0 0 0 0 0 0 0 0 0 0 0 0 0 0 0 0 0 0 0 0 0 0 0 0 0 0 0 0 0 0 0 0 0 0 0 0
0 0 0 0 0 0 0 0 0 0 0 0 0 0 0 0 0 0 0 0 0 0 0 0 0 0 0 0 0 0 0 0 0 0 0 0 0 0 0 0 0 0 0 0 0 0 0 0 0
0 0 0 0 0 0 0 0 0 0 0 0 0 0 0 0 0 0 0 0 0 0 0 0 0 0 0 0 0 0 0 0 0 0 0 0 0 0 0 0 0 0 0 0 0 0 0 0 0
0 0 0 0 0 0 0 0 0 0 0 0 0 0 0 0 0 0 0 0 0 0 0 0 0 0 0 0 0 0 0 0 0 0 0 0 0 0 0 0 0 0 0 0 0 0 0 0 0
0 0 0 0 0 0 0 0 0 0 0 0 0 0 0 0 0 0 0 0 0 0 0 0 0 0 0 0 0 0 0 0 0 0 0 0 0 0 0 0 0 0 0 0 0 0 0 0 0
0 0 0 0 0 0 0 0 -0 0 0 0 0 0 0 0 0 0 0 0 0 0 0 0 0 0 0 0 0 0 0 0 0 0 0 0 0 0 0 0 0 0 0 0 0 0 0 0 0
0 0 0 0 0 0 0 0 -0 0 0 0 0 0 0 0 0 0 0 0 0 0 0 0 0 0 0 0 0 0 0 0 0 0 0 0 0 0 0 0 0 0 0 0 0 0 0 0 0
0 0 0 0 0 0 0 0 0 0 0 0 0 0 0 0 0 0 0 0 0 0 0 0 0 0 0 0 0 0 0 0 0 0 0 0 0 0 0 0 0 0 0 0 0 0 0 0 0
0 0 0 0 0 0 0 0 0 -0 -0 0 0 0 0 0 0 0 0 0 0 0 0 0 0 0 0 0 0 0 0 0 0 0 0 0 0 0 0 0 0 0 0 0 0 0 0 0 0
0 0 0 0 0 0 0 0 0 0 0 0 0 0 0 0 0 0 0 0 0 0 0 0 0 0 0 0 0 0 0 0 0 0 0 0 0 0 0 0 0 0 0 0 0 0 0 0 0
0 0 0 0 0 0 0 0 0 0 -0 0 0 0 0 0 0 0 0 0 0 0 0 0 0 0 0 0 0 0 0 0 0 0 0 0 0 0 0 0 0 0 0 0 0 0 0 0 0
0 0 0 0 0 0 0 0 0 0 0 0 0 0 0 0 0 0 0 0 0 0 0 0 0 0 0 0 0 0 0 0 0 0 0 0 0 0 0 0 0 0 0 0 0 0 0 0 0
0 0 0 0 0 0 0 0 0 0 0 0 0 0 0 0 0 0 0 0 0 0 0 0 0 0 0 0 0 0 0 0 0 0 0 0 0 0 0 0 0 0 0 0 0 0 0 0 0
Wind_Speed_500mb
13 11 10 13 7 9 4 2 10 9 9 18 27 32 20 12 6 8 41 41 33 34 30 28 26 29 28 22 26 31 32 31 33 37 32 29 34 34 30 25 21 22 26 32 27 29 28 27 27
12 7 6 5 8 5 9 10 14 6 22 28 26 16 15 6 24 44 44 32 28 36 31 30 28 29 27 23 26 29 31 30 32 30 31 29 35 30 34 29 24 24 31 33 30 28 30 32 28
7 4 4 6 5 6 10 4 18 22 32 18 9 18 10 6 36 49 42 35 35 36 32 30 29 28 26 25 24 27 29 28 29 29 28 27 33 33 35 32 31 33 35 36 33 36 37 36 31
6 7 5 6 3 11 13 14 37 16 15 14 28 18 17 14 43 34 40 35 33 37 33 30 29 28 25 25 23 24 26 26 26 24 26 29 32 33 27 32 32 33 33 32 34 35 35 32 28
8 1 1 3 4 3 6 42 40 11 14 12 12 8 16 21 20 40 48 38 31 36 34 30 29 28 26 24 22 21 22 22 23 23 23 24 26 25 23 23 27 26 26 28 30 31 31 27 23
3 1 5 9 5 5 7 42 37 19 24 15 27 18 10 20 25 60 47 36 25 29 34 31 29 27 26 23 22 20 19 18 20 20 20 19 19 18 22 25 23 22 22 25 28 26 25 25 24
5 7 9 5 15 5 10 29 29 26 24 13 16 10 24 33 44 54 45 31 25 24 32 33 31 29 27 23 20 18 17 16 16 18 15 15 15 15 18 19 17 19 21 24 23 21 23 25 27
3 5 4 7 13 9 17 14 17 35 9 23 11 14 17 45 56 51 44 35 23 21 32 33 32 30 27 23 20 17 14 13 12 14 12 13 13 12 11 13 12 16 19 20 19 18 20 22 25
0 6 5 7 14 12 28 9 13 21 28 13 10 17 30 47 58 55 46 39 33 26 33 35 33 31 28 24 21 18 15 12 10 9 9 9 8 9 10 10 10 16 17 16 15 15 17 20 19
6 5 9 6 16 15 34 26 20 14 27 13 26 31 44 46 61 64 55 51 42 37 31 32 33 33 31 28 24 21 17 14 12 9 9 7 6 7 9 8 7 12 15 14 12 13 13 15 12
6 9 10 12 9 52 41 26 21 34 4 28 52 63 53 52 56 63 59 53 47 40 40 35 31 36 35 32 29 25 22 19 15 13 11 7 4 5 6 7 8 11 12 11 10 8 9 11 11
3 8 6 11 12 39 25 31 20 32 11 31 42 45 52 51 60 63 65 58 53 46 46 42 39 34 33 34 32 29 27 24 21 19 16 11 7 7 8 10 12 12 10 9 6 5 6 8 7
7 2 5 7 10 17 27 14 10 17 19 33 44 46 45 45 52 58 56 52 53 55 50 52 48 46 43 36 33 33 32 29 25 23 22 18 14 11 13 14 15 15 12 12 8 5 4 2 2
10 10 1 4 5 8 12 4 11 19 26 30 48 47 40 40 41 48 54 56 54 50 58 56 57 53 52 47 38 37 36 34 31 27 25 25 21 19 16 14 16 16 15 14 10 8 5 6 7
19 7 2 3 6 3 6 3 13 11 36 36 45 42 36 35 33 41 42 46 46 45 42 55 60 59 58 55 47 40 40 38 36 31 30 29 29 25 21 18 14 15 17 16 15 12 11 11 13
12 10 6 7 14 3 9 13 14 25 39 40 40 42 43 41 38 35 36 38 40 39 44 39 51 58 59 60 57 50 46 44 42 38 35 34 34 32 29 25 20 18 19 19 17 17 17 19 22
4 7 8 2 17 6 5 11 9 25 38 38 39 41 43 46 47 43 42 40 43 44 43 46 43 51 55 58 61 57 51 50 46 43 39 37 38 38 34 30 26 26 25 24 23 23 24 28 31
10 10 9 12 12 8 8 16 15 3 30 36 38 38 39 44 52 45 48 51 49 53 48 48 47 44 46 53 58 60 60 55 52 49 48 36 40 43 42 38 37 38 34 35 35 32 34 39 40
9 7 11 2 3 9 15 12 21 36 26 30 36 38 37 43 40 42 41 52 54 57 57 56 55 51 49 54 59 62 66 65 61 60 54 44 42 45 47 43 45 46 46 40 43 42 43 46 45
5 5 8 5 4 8 5 20 20 23 26 47 46 45 48 48 45 44 43 41 60 64 62 61 60 56 54 56 52 54 59 64 65 62 61 58 50 48 50 52 48 47 49 50 50 48 50 50 51
9 9 8 9 6 2 5 15 14 20 44 54 60 62 57 56 54 49 49 46 44 57 68 64 62 61 57 56 53 52 53 58 64 70 68 64 57 52 52 53 54 55 52 50 50 52 54 58 56
12 12 10 15 8 6 7 10 10 11 19 17 62 74 71 68 57 46 56 56 50 44 54 64 62 63 61 63 64 63 65 62 61 62 63 69 70 61 58 53 52 53 55 57 56 54 56 61 63
10 10 15 7 7 5 3 1 14 5 12 20 33 57 72 72 60 54 38 58 58 53 53 61 68 72 69 70 70 69 69 68 60 51 49 58 59 68 71 70 67 60 56 55 56 59 57 50 56
13 15 16 11 8 5 15 14 12 10 15 12 17 45 51 44 47 51 47 50 55 53 51 56 63 70 72 75 72 70 72 71 61 57 55 55 53 54 55 61 63 64 57 54 55 50 50 44 53
12 14 6 2 2 11 5 6 19 9 14 14 18 16 21 33 34 37 39 41 47 53 57 60 62 63 66 72 78 81 77 70 62 56 58 52 54 54 50 48 50 48 49 45 48 47 45 48 45
20 15 12 16 9 8 6 13 11 18 23 14 16 21 19 23 28 32 33 31 31 33 33 33 35 39 46 56 65 71 73 67 52 47 46 47 46 45 42 39 39 39 40 40 41 44 38 44 42
11 12 11 12 6 6 9 11 17 14 13 9 18 24 22 18 19 22 24 24 22 20 18 16 16 19 22 28 35 48 59 64 60 52 43 43 39 38 36 33 35 37 38 40 40 41 45 45 40
14 16 4 6 7 7 9 9 12 8 19 13 18 36 29 22 23 23 25 24 22 19 16 15 14 15 16 18 21 24 28 37 47 50 41 42 36 34 34 34 34 35 36 35 39 39 40 40 42
8 9 8 10 11 10 1 12 14 22 17 21 33 38 35 36 34 31 30 28 26 23 21 20 18 16 18 18 19 19 22 31 31 25 27 31 33 33 32 30 28 30 33 33 34 36 33 32 33
15 15 27 11 9 4 7 21 2 11 10 25 29 32 35 39 39 38 35 35 34 30 25 20 17 15 14 16 17 17 21 26 21 17 19 21 24 25 25 24 27 24 22 22 23 24 25 27 29
Wind_Direction_500mb
312 318 325 321 42 64 250 4 116 78 53 77 75 92 106 70 65 160 151 175 167 157 142 134 127 127 120 106 87 85 89 92 91 101 95 81 83 89 99 124 115 105 100 93 95 99 90 89 83
303 305 311 314 83 52 273 164 118 133 117 103 81 104 61 84 110 137 157 180 164 158 143 135 133 132 125 114 96 87 88 90 89 101 100 87 90 83 87 102 106 105 97 95 92 102 94 95 94
267 269 328 110 129 205 176 99 132 118 119 116 102 84 70 90 139 143 163 173 163 153 145 140 137 136 131 119 105 92 88 87 87 94 99 95 97 86 85 85 87 93 91 93 89 93 97 103 106
182 157 260 103 257 285 125 168 129 112 106 90 112 77 82 140 142 155 170 169 164 154 146 143 140 138 138 124 116 100 93 91 92 94 95 97 98 101 102 98 87 92 98 92 95 97 100 105 109
172 194 107 296 233 358 105 136 131 115 132 128 110 116 106 121 152 160 170 174 171 157 150 150 146 143 144 131 124 110 101 95 98 98 104 102 106 103 106 111 109 109 99 98 99 101 100 99 104
171 158 93 236 197 174 136 144 137 139 150 138 120 110 132 160 163 158 168 178 174 166 157 158 153 150 150 142 135 125 115 107 106 103 108 113 113 102 107 105 115 114 103 102 102 101 97 96 107
137 100 214 195 180 173 163 151 136 135 140 159 145 89 144 164 157 157 170 172 180 174 170 167 163 160 160 152 145 139 130 120 110 110 109 112 120 111 117 125 111 117 108 107 106 101 94 96 118
289 118 239 192 190 192 164 135 156 148 136 149 115 151 174 167 159 159 165 172 190 196 188 178 173 170 170 166 161 156 148 135 122 117 121 118 131 125 130 135 135 126 119 113 109 104 95 94 113
205 47 254 249 166 174 156 127 99 125 136 119 109 153 165 163 162 159 167 177 184 204 193 185 183 180 180 181 179 171 168 159 147 135 137 139 147 130 141 141 127 128 129 121 111 103 99 99 111
150 132 241 277 162 164 158 157 137 131 132 109 116 137 153 164 167 167 179 180 186 196 208 190 192 191 190 193 194 190 189 184 178 173 170 171 167 151 157 149 140 133 130 126 119 111 107 109 101
186 203 297 344 117 155 158 163 161 142 204 181 152 157 165 170 176 178 186 188 188 192 198 198 203 201 198 201 203 205 203 203 201 202 212 215 196 180 178 172 164 160 150 144 133 103 90 103 88
224 266 356 353 24 153 152 160 166 170 193 201 187 180 177 182 184 187 192 196 197 194 194 197 201 210 213 202 207 210 214 215 213 213 224 241 237 237 213 198 193 191 180 174 152 131 102 90 70
203 283 13 32 28 114 150 153 164 180 145 161 184 184 189 192 194 196 200 205 203 202 199 204 201 200 204 219 213 214 217 222 223 215 225 235 231 238 224 216 211 209 202 200 182 173 152 115 38
288 170 137 75 27 59 121 119 188 195 163 161 180 188 197 198 199 199 203 207 213 212 207 205 208 209 207 212 220 223 224 223 226 223 224 232 233 239 235 226 219 220 220 212 208 214 226 260 280
156 104 11 203 165 80 82 330 235 162 191 169 181 189 203 210 206 216 216 212 216 218 218 212 210 211 212 211 213 216 218 220 231 231 229 229 233 237 243 245 239 226 224 222 226 232 248 266 281
130 96 128 269 156 152 154 250 253 203 192 186 190 196 207 218 226 228 229 229 226 226 223 226 218 216 218 217 216 215 218 223 231 239 233 232 235 236 239 241 242 235 233 229 235 242 257 272 281
26 178 170 218 190 125 147 244 301 221 202 203 211 216 217 221 224 235 235 234 231 234 231 230 230 224 219 220 220 220 222 227 229 235 242 235 238 240 237 242 243 242 239 237 242 252 269 276 283
167 189 179 183 207 152 171 251 273 224 206 217 225 229 232 231 226 230 231 231 231 233 238 237 236 231 228 224 221 222 224 228 233 235 243 235 234 238 242 239 239 248 245 251 249 251 270 275 277
154 184 189 115 164 143 217 248 250 255 249 242 240 241 244 240 237 233 238 229 226 229 231 237 236 233 227 226 222 222 224 224 228 232 236 246 238 236 241 241 240 242 246 252 258 260 271 272 277
239 179 196 114 172 162 194 260 253 242 236 240 242 236 233 233 235 238 237 229 222 223 229 234 239 240 235 235 237 238 234 232 232 232 236 239 243 234 239 244 244 246 249 251 256 260 268 273 273
199 176 203 154 162 308 28 290 257 256 234 238 243 244 245 240 240 237 233 229 229 225 225 229 235 241 246 247 244 243 245 241 234 232 234 240 245 246 242 242 245 247 250 253 254 259 266 269 274
184 206 138 132 108 201 147 277 279 248 255 213 237 240 242 243 244 245 234 225 225 230 225 225 229 235 242 248 250 249 249 250 245 240 239 241 244 245 250 251 251 253 256 259 259 264 267 270 276
200 160 136 144 117 85 265 28 269 300 271 258 235 240 242 243 242 240 236 215 214 217 224 225 225 226 231 239 247 253 254 258 260 263 255 248 249 249 252 255 259 258 259 267 269 272 268 274 280
146 82 46 42 66 290 218 178 266 211 220 262 245 249 249 246 238 230 223 211 218 224 228 230 230 230 228 230 234 241 249 251 250 255 250 252 251 251 250 248 254 260 260 263 265 271 272 274 276
98 91 46 19 282 223 310 221 246 257 240 212 222 204 199 205 208 209 213 219 227 233 238 241 240 237 235 235 236 240 243 248 248 249 251 254 256 257 257 255 253 253 255 260 260 264 267 272 273
170 168 162 185 198 237 338 236 237 240 250 237 192 189 192 205 214 221 225 225 225 229 233 234 235 235 235 236 238 238 242 247 245 248 253 255 257 259 260 252 251 252 252 254 257 258 270 270 279
208 217 170 104 22 70 222 283 299 250 242 150 145 171 188 207 216 218 215 212 208 204 204 205 208 211 217 225 225 229 232 239 242 239 248 252 251 251 250 250 248 249 252 253 252 263 273 266 265
176 149 211 359 130 253 271 259 226 255 241 209 207 211 202 200 201 208 212 213 212 211 209 210 213 219 221 222 225 229 230 227 231 235 238 244 247 246 249 251 251 251 251 253 258 259 261 264 267
135 177 190 141 162 190 241 257 221 210 209 216 228 222 211 207 211 214 216 217 221 221 219 220 221 224 226 226 229 226 225 222 234 218 225 235 238 242 246 245 242 244 247 249 255 258 261 268 274
212 188 181 173 209 205 150 255 163 176 192 204 215 219 217 217 217 219 223 222 222 221 223 225 226 224 215 209 208 211 219 223 220 206 210 220 229 232 236 233 239 239 238 241 247 260 272 281 285
Wind_Speed_850mb
13 11 10 13 7 9 4 2 10 9 9 18 27 32 20 12 6 8 41 41 33 34 30 28 26 29 28 22 26 31 32 31 33 37 32 29 34 34 30 25 21 22 26 32 27 29 28 27 27
12 7 6 5 8 5 9 10 14 6 22 28 26 16 15 6 24 44 44 32 28 36 31 30 28 29 27 23 26 29 31 30 32 30 31 29 35 30 34 29 24 24 31 33 30 28 30 32 28
7 4 4 6 5 6 10 4 18 22 32 18 9 18 10 6 36 49 42 35 35 36 32 30 29 28 26 25 24 27 29 28 29 29 28 27 33 33 35 32 31 33 35 36 33 36 37 36 31
6 7 5 6 3 11 13 14 37 16 15 14 28 18 17 14 43 34 40 35 33 37 33 30 29 28 25 25 23 24 26 26 26 24 26 29 32 33 27 32 32 33 33 32 34 35 35 32 28
8 1 1 3 4 3 6 42 40 11 14 12 12 8 16 21 20 40 48 38 31 36 34 30 29 28 26 24 22 21 22 22 23 23 23 24 26 25 23 23 27 26 26 28 30 31 31 27 23
3 1 5 9 5 5 7 42 37 19 24 15 27 18 10 20 25 60 47 36 25 29 34 31 29 27 26 23 22 20 19 18 20 20 20 19 19 18 22 25 23 22 22 25 28 26 25 25 24
5 7 9 5 15 5 10 29 29 26 24 13 16 10 24 33 44 54 45 31 25 24 32 33 31 29 27 23 20 18 17 16 16 18 15 15 15 15 18 19 17 19 21 24 23 21 23 25 27
3 5 4 7 13 9 17 14 17 35 9 23 11 14 17 45 56 51 44 35 23 21 32 33 32 30 27 23 20 17 14 13 12 14 12 13 13 12 11 13 12 16 19 20 19 18 20 22 25
0 6 5 7 14 12 28 9 13 21 28 13 10 17 30 47 58 55 46 39 33 26 33 35 33 31 28 24 21 18 15 12 10 9 9 9 8 9 10 10 10 16 17 16 15 15 17 20 19
6 5 9 6 16 15 34 26 20 14 27 13 26 31 44 46 61 64 55 51 42 37 31 32 33 33 31 28 24 21 17 14 12 9 9 7 6 7 9 8 7 12 15 14 12 13 13 15 12
6 9 10 12 9 52 41 26 21 34 4 28 52 63 53 52 56 63 59 53 47 40 40 35 31 36 35 32 29 25 22 19 15 13 11 7 4 5 6 7 8 11 12 11 10 8 9 11 11
3 8 6 11 12 39 25 31 20 32 11 31 42 45 52 51 60 63 65 58 53 46 46 42 39 34 33 34 32 29 27 24 21 19 16 11 7 7 8 10 12 12 10 9 6 5 6 8 7
7 2 5 7 10 17 27 14 10 17 19 33 44 46 45 45 52 58 56 52 53 55 50 52 48 46 43 36 33 33 32 29 25 23 22 18 14 11 13 14 15 15 12 12 8 5 4 2 2
10 10 1 4 5 8 12 4 11 19 26 30 48 47 40 40 41 48 54 56 54 50 58 56 57 53 52 47 38 37 36 34 31 27 25 25 21 19 16 14 16 16 15 14 10 8 5 6 7
19 7 2 3 6 3 6 3 13 11 36 36 45 42 36 35 33 41 42 46 46 45 42 55 60 59 58 55 47 40 40 38 36 31 30 29 29 25 21 18 14 15 17 16 15 12 11 11 13
12 10 6 7 14 3 9 13 14 25 39 40 40 42 43 41 38 35 36 38 40 39 44 39 51 58 59 60 57 50 46 44 42 38 35 34 34 32 29 25 20 18 19 19 17 17 17 19 22
4 7 8 2 17 6 5 11 9 25 38 38 39 41 43 46 47 43 42 40 43 44 43 46 43 51 55 58 61 57 51 50 46 43 39 37 38 38 34 30 26 26 25 24 23 23 24 28 31
10 10 9 12 12 8 8 16 15 3 30 36 38 38 39 44 52 45 48 51 49 53 48 48 47 44 46 53 58 60 60 55 52 49 48 36 40 43 42 38 37 38 34 35 35 32 34 39 40
9 7 11 2 3 9 15 12 21 36 26 30 36 38 37 43 40 42 41 52 54 57 57 56 55 51 49 54 59 62 66 65 61 60 54 44 42 45 47 43 45 46 46 40 43 42 43 46 45
5 5 8 5 4 8 5 20 20 23 26 47 46 45 48 48 45 44 43 41 60 64 62 61 60 56 54 56 52 54 59 64 65 62 61 58 50 48 50 52 48 47 49 50 50 48 50 50 51
9 9 8 9 6 2 5 15 14 20 44 54 60 62 57 56 54 49 49 46 44 57 68 64 62 61 57 56 53 52 53 58 64 70 68 64 57 52 52 53 54 55 52 50 50 52 54 58 56
12 12 10 15 8 6 7 10 10 11 19 17 62 74 71 68 57 46 56 56 50 44 54 64 62 63 61 63 64 63 65 62 61 62 63 69 70 61 58 53 52 53 55 57 56 54 56 61 63
10 10 15 7 7 5 3 1 14 5 12 20 33 57 72 72 60 54 38 58 58 53 53 61 68 72 69 70 70 69 69 68 60 51 49 58 59 68 71 70 67 60 56 55 56 59 57 50 56
13 15 16 11 8 5 15 14 12 10 15 12 17 45 51 44 47 51 47 50 55 53 51 56 63 70 72 75 72 70 72 71 61 57 55 55 53 54 55 61 63 64 57 54 55 50 50 44 53
12 14 6 2 2 11 5 6 19 9 14 14 18 16 21 33 34 37 39 41 47 53 57 60 62 63 66 72 78 81 77 70 62 56 58 52 54 54 50 48 50 48 49 45 48 47 45 48 45
20 15 12 16 9 8 6 13 11 18 23 14 16 21 19 23 28 32 33 31 31 33 33 33 35 39 46 56 65 71 73 67 52 47 46 47 46 45 42 39 39 39 40 40 41 44 38 44 42
11 12 11 12 6 6 9 11 17 14 13 9 18 24 22 18 19 22 24 24 22 20 18 16 16 19 22 28 35 48 59 64 60 52 43 43 39 38 36 33 35 37 38 40 40 41 45 45 40
14 16 4 6 7 7 9 9 12 8 19 13 18 36 29 22 23 23 25 24 22 19 16 15 14 15 16 18 21 24 28 37 47 50 41 42 36 34 34 34 34 35 36 35 39 39 40 40 42
8 9 8 10 11 10 1 12 14 22 17 21 33 38 35 36 34 31 30 28 26 23 21 20 18 16 18 18 19 19 22 31 31 25 27 31 33 33 32 30 28 30 33 33 34 36 33 32 33
15 15 27 11 9 4 7 21 2 11 10 25 29 32 35 39 39 38 35 35 34 30 25 20 17 15 14 16 17 17 21 26 21 17 19 21 24 25 25 24 27 24 22 22 23 24 25 27 29
Wind_Direction_850mb
312 318 325 321 42 64 250 4 116 78 53 77 75 92 106 70 65 160 151 175 167 157 142 134 127 127 120 106 87 85 89 92 91 101 95 81 83 89 99 124 115 105 100 93 95 99 90 89 83
303 305 311 314 83 52 273 164 118 133 117 103 81 104 61 84 110 137 157 180 164 158 143 135 133 132 125 114 96 87 88 90 89 101 100 87 90 83 87 102 106 105 97 95 92 102 94 95 94
267 269 328 110 129 205 176 99 132 118 119 116 102 84 70 90 139 143 163 173 163 153 145 140 137 136 131 119 105 92 88 87 87 94 99 95 97 86 85 85 87 93 91 93 89 93 97 103 106
182 157 260 103 257 285 125 168 129 112 106 90 112 77 82 140 142 155 170 169 164 154 146 143 140 138 138 124 116 100 93 91 92 94 95 97 98 101 102 98 87 92 98 92 95 97 100 105 109
172 194 107 296 233 358 105 136 131 115 132 128 110 116 106 121 152 160 170 174 171 157 150 150 146 143 144 131 124 110 101 95 98 98 104 102 106 103 106 111 109 109 99 98 99 101 100 99 104
171 158 93 236 197 174 136 144 137 139 150 138 120 110 132 160 163 158 168 178 174 166 157 158 153 150 150 142 135 125 115 107 106 103 108 113 113 102 107 105 115 114 103 102 102 101 97 96 107
137 100 214 195 180 173 163 151 136 135 140 159 145 89 144 164 157 157 170 172 180 174 170 167 163 160 160 152 145 139 130 120 110 110 109 112 120 111 117 125 111 117 108 107 106 101 94 96 118
289 118 239 192 190 192 164 135 156 148 136 149 115 151 174 167 159 159 165 172 190 196 188 178 173 170 170 166 161 156 148 135 122 117 121 118 131 125 130 135 135 126 119 113 109 104 95 94 113
205 47 254 249 166 174 156 127 99 125 136 119 109 153 165 163 162 159 167 177 184 204 193 185 183 180 180 181 179 171 168 159 147 135 137 139 147 130 141 141 127 128 129 121 111 103 99 99 111
150 132 241 277 162 164 158 157 137 131 132 109 116 137 153 164 167 167 179 180 186 196 208 190 192 191 190 193 194 190 189 184 178 173 170 171 167 151 157 149 140 133 130 126 119 111 107 109 101
186 203 297 344 117 155 158 163 161 142 204 181 152 157 165 170 176 178 186 188 188 192 198 198 203 201 198 201 203 205 203 203 201 202 212 215 196 180 178 172 164 160 150 144 133 103 90 103 88
224 266 356 353 24 153 152 160 166 170 193 201 187 180 177 182 184 187 192 196 197 194 194 197 201 210 213 202 207 210 214 215 213 213 224 241 237 237 213 198 193 191 180 174 152 131 102 90 70
203 283 13 32 28 114 150 153 164 180 145 161 184 184 189 192 194 196 200 205 203 202 199 204 201 200 204 219 213 214 217 222 223 215 225 235 231 238 224 216 211 209 202 200 182 173 152 115 38
288 170 137 75 27 59 121 119 188 195 163 161 180 188 197 198 199 199 203 207 213 212 207 205 208 209 207 212 220 223 224 223 226 223 224 232 233 239 235 226 219 220 220 212 208 214 226 260 280
156 104 11 203 165 80 82 330 235 162 191 169 181 189 203 210 206 216 216 212 216 218 218 212 210 211 212 211 213 216 218 220 231 231 229 229 233 237 243 245 239 226 224 222 226 232 248 266 281
130 96 128 269 156 152 154 250 253 203 192 186 190 196 207 218 226 228 229 229 226 226 223 226 218 216 218 217 216 215 218 223 231 239 233 232 235 236 239 241 242 235 233 229 235 242 257 272 281
26 178 170 218 190 125 147 244 301 221 202 203 211 216 217 221 224 235 235 234 231 234 231 230 230 224 219 220 220 220 222 227 229 235 242 235 238 240 237 242 243 242 239 237 242 252 269 276 283
167 189 179 183 207 152 171 251 273 224 206 217 225 229 232 231 226 230 231 231 231 233 238 237 236 231 228 224 221 222 224 228 233 235 243 235 234 238 242 239 239 248 245 251 249 251 270 275 277
154 184 189 115 164 143 217 248 250 255 249 242 240 241 244 240 237 233 238 229 226 229 231 237 236 233 227 226 222 222 224 224 228 232 236 246 238 236 241 241 240 242 246 252 258 260 271 272 277
239 179 196 114 172 162 194 260 253 242 236 240 242 236 233 233 235 238 237 229 222 223 229 234 239 240 235 235 237 238 234 232 232 232 236 239 243 234 239 244 244 246 249 251 256 260 268 273 273
199 176 203 154 162 308 28 290 257 256 234 238 243 244 245 240 240 237 233 229 229 225 225 229 235 241 246 247 244 243 245 241 234 232 234 240 245 246 242 242 245 247 250 253 254 259 266 269 274
184 206 138 132 108 201 147 277 279 248 255 213 237 240 242 243 244 245 234 225 225 230 225 225 229 235 242 248 250 249 249 250 245 240 239 241 244 245 250 251 251 253 256 259 259 264 267 270 276
200 160 136 144 117 85 265 28 269 300 271 258 235 240 242 243 242 240 236 215 214 217 224 225 225 226 231 239 247 253 254 258 260 263 255 248 249 249 252 255 259 258 259 267 269 272 268 274 280
146 82 46 42 66 290 218 178 266 211 220 262 245 249 249 246 238 230 223 211 218 224 228 230 230 230 228 230 234 241 249 251 250 255 250 252 251 251 250 248 254 260 260 263 265 271 272 274 276
98 91 46 19 282 223 310 221 246 257 240 212 222 204 199 205 208 209 213 219 227 233 238 241 240 237 235 235 236 240 243 248 248 249 251 254 256 257 257 255 253 253 255 260 260 264 267 272 273
170 168 162 185 198 237 338 236 237 240 250 237 192 189 192 205 214 221 225 225 225 229 233 234 235 235 235 236 238 238 242 247 245 248 253 255 257 259 260 252 251 252 252 254 257 258 270 270 279
208 217 170 104 22 70 222 283 299 250 242 150 145 171 188 207 216 218 215 212 208 204 204 205 208 211 217 225 225 229 232 239 242 239 248 252 251 251 250 250 248 249 252 253 252 263 273 266 265
176 149 211 359 130 253 271 259 226 255 241 209 207 211 202 200 201 208 212 213 212 211 209 210 213 219 221 222 225 229 230 227 231 235 238 244 247 246 249 251 251 251 251 253 258 259 261 264 267
135 177 190 141 162 190 241 257 221 210 209 216 228 222 211 207 211 214 216 217 221 221 219 220 221 224 226 226 229 226 225 222 234 218 225 235 238 242 246 245 242 244 247 249 255 258 261 268 274
212 188 181 173 209 205 150 255 163 176 192 204 215 219 217 217 217 219 223 222 222 221 223 225 226 224 215 209 208 211 219 223 220 206 210 220 229 232 236 233 239 239 238 241 247 260 272 281 285